When you browse on this site, cookies collect data to enhance your experience and personalize the content and advertising you see.
Visit our Privacy Policy to learn more. By continuing to use the site, you agree to this use of cookies and data.
  • In Czech Republic
  • List of Countries
  • For 7 days
  • Water Temperature
  • Weather Map
  • Weather Widgets
  • user-avatar
    Login

    Hourly Weather Los Santos

    Today, 3 April, Friday

    Time Temperature Precipitation Wind Pressure Humidity
    00:00 +19°C° 0.8 mm 0 mps 649 mmHg 91%
    01:00 +19°C° 0.8 mm 0 mps 649 mmHg 91%
    02:00 +19°C° 0.5 mm 0 mps 648 mmHg 91%
    03:00 +19°C° 0.5 mm 0 mps 648 mmHg 91%
    04:00 +18°C° 0.5 mm 0 mps 648 mmHg 91%
    05:00 +19°C° 0.1 mm 0 mps 648 mmHg 90%
    06:00 +19°C° 0.1 mm 0 mps 649 mmHg 89%
    07:00 +20°C° 0.1 mm 0 mps 649 mmHg 87%
    08:00 +23°C° 0.4 mm 1 mps 650 mmHg 84%
    09:00 +24°C° 0.4 mm 1 mps 650 mmHg 81%
    10:00 +25°C° 0.4 mm 1 mps 650 mmHg 78%
    11:00 +26°C° 0.6 mm 2 mps 650 mmHg 78%
    12:00 +26°C° 0.6 mm 2 mps 649 mmHg 78%
    13:00 +26°C° 0.6 mm 2 mps 648 mmHg 78%
    14:00 +26°C° 0.7 mm 2 mps 648 mmHg 80%
    15:00 +25°C° 0.7 mm 2 mps 647 mmHg 82%
    16:00 +25°C° 0.7 mm 2 mps 647 mmHg 84%
    17:00 +24°C° 0.7 mm 1 mps 647 mmHg 87%
    18:00 +23°C° 0.7 mm 1 mps 647 mmHg 90%
    19:00 +22°C° 0.7 mm 1 mps 647 mmHg 93%
    20:00 +20°C° 1.5 mm 0 mps 648 mmHg 93%
    21:00 +20°C° 1.5 mm 0 mps 648 mmHg 92%
    22:00 +20°C° 1.5 mm 0 mps 649 mmHg 91%
    23:00 +20°C° 1.2 mm 0 mps 649 mmHg 91%

    Tomorrow, 4 April, Saturday

    Time Temperature Precipitation Wind Pressure Humidity
    00:00 +20°C° 1.2 mm 0 mps 648 mmHg 91%
    01:00 +19°C° 1.2 mm 0 mps 648 mmHg 91%
    02:00 +19°C° 1.8 mm 0 mps 648 mmHg 92%
    03:00 +19°C° 1.8 mm 0 mps 648 mmHg 93%
    04:00 +19°C° 1.8 mm 0 mps 648 mmHg 93%
    05:00 +19°C° 2.2 mm 0 mps 648 mmHg 93%
    06:00 +19°C° 2.2 mm 0 mps 648 mmHg 93%
    07:00 +19°C° 2.2 mm 0 mps 649 mmHg 92%
    08:00 +20°C° 0.8 mm 0 mps 649 mmHg 89%
    09:00 +23°C° 0.8 mm 1 mps 650 mmHg 87%
    10:00 +24°C° 0.8 mm 1 mps 651 mmHg 84%
    11:00 +25°C° 0.5 mm 1 mps 650 mmHg 82%
    12:00 +26°C° 0.5 mm 1 mps 649 mmHg 79%
    13:00 +26°C° 0.5 mm 2 mps 648 mmHg 77%
    14:00 +26°C° 0.5 mm 2 mps 648 mmHg 80%
    15:00 +26°C° 0.5 mm 2 mps 647 mmHg 82%
    16:00 +25°C° 0.5 mm 2 mps 647 mmHg 84%
    17:00 +24°C° 0.7 mm 1 mps 647 mmHg 88%
    18:00 +23°C° 0.7 mm 1 mps 647 mmHg 92%
    19:00 +23°C° 0.7 mm 1 mps 647 mmHg 95%
    20:00 +20°C° 0.9 mm 0 mps 647 mmHg 93%
    21:00 +20°C° 0.9 mm 0 mps 648 mmHg 91%
    22:00 +20°C° 0.9 mm 0 mps 649 mmHg 90%
    23:00 +20°C° 0.4 mm 0 mps 648 mmHg 89%

    Day after tomorrow, 5 April, Sunday

    Time Temperature Precipitation Wind Pressure Humidity
    00:00 +19°C° 0.4 mm 0 mps 648 mmHg 88%
    01:00 +19°C° 0.4 mm 0 mps 648 mmHg 87%
    02:00 +19°C° 0.4 mm 0 mps 648 mmHg 87%
    03:00 +19°C° 0.4 mm 0 mps 648 mmHg 87%
    04:00 +18°C° 0.4 mm 0 mps 647 mmHg 88%
    05:00 +19°C° 0.1 mm 0 mps 648 mmHg 87%
    06:00 +21°C° 0.1 mm 1 mps 648 mmHg 85%
    07:00 +22°C° 0.1 mm 1 mps 649 mmHg 84%
    08:00 +23°C° 0 mm 1 mps 649 mmHg 80%
    09:00 +25°C° 0 mm 1 mps 650 mmHg 76%
    10:00 +26°C° 0 mm 1 mps 651 mmHg 73%
    11:00 +27°C° 0.4 mm 2 mps 650 mmHg 73%
    12:00 +27°C° 0.4 mm 2 mps 649 mmHg 74%
    13:00 +27°C° 0.4 mm 2 mps 648 mmHg 75%
    14:00 +27°C° 0.6 mm 2 mps 648 mmHg 77%
    15:00 +27°C° 0.6 mm 2 mps 648 mmHg 78%
    16:00 +26°C° 0.6 mm 2 mps 647 mmHg 80%
    17:00 +25°C° 1.7 mm 1 mps 647 mmHg 83%
    18:00 +24°C° 1.7 mm 1 mps 647 mmHg 87%
    19:00 +23°C° 1.7 mm 1 mps 648 mmHg 90%
    20:00 +23°C° 1.4 mm 1 mps 648 mmHg 89%
    21:00 +23°C° 1.4 mm 1 mps 649 mmHg 88%
    22:00 +22°C° 1.4 mm 1 mps 649 mmHg 87%
    23:00 +22°C° 1.5 mm 1 mps 649 mmHg 87%

    6 April, Monday

    Time Temperature Precipitation Wind Pressure Humidity
    00:00 +22°C° 1.5 mm 1 mps 649 mmHg 86%
    01:00 +22°C° 1.5 mm 1 mps 648 mmHg 86%
    02:00 +22°C° 0.6 mm 1 mps 648 mmHg 86%
    03:00 +21°C° 0.6 mm 1 mps 648 mmHg 87%
    04:00 +21°C° 0.6 mm 1 mps 648 mmHg 87%
    05:00 +21°C° 0.1 mm 1 mps 649 mmHg 86%
    06:00 +22°C° 0.1 mm 1 mps 649 mmHg 85%
    07:00 +22°C° 0.1 mm 1 mps 649 mmHg 84%
    08:00 +23°C° 0 mm 1 mps 650 mmHg 79%
    09:00 +25°C° 0 mm 1 mps 651 mmHg 75%
    10:00 +26°C° 0 mm 1 mps 651 mmHg 70%
    11:00 +27°C° 0.2 mm 1 mps 651 mmHg 71%
    12:00 +27°C° 0.2 mm 2 mps 650 mmHg 73%
    13:00 +27°C° 0.2 mm 2 mps 649 mmHg 74%
    14:00 +27°C° 0.8 mm 2 mps 649 mmHg 76%
    15:00 +26°C° 0.8 mm 2 mps 648 mmHg 78%
    16:00 +26°C° 0.8 mm 2 mps 648 mmHg 80%
    17:00 +25°C° 1.6 mm 1 mps 648 mmHg 83%
    18:00 +24°C° 1.6 mm 1 mps 648 mmHg 86%
    19:00 +23°C° 1.6 mm 1 mps 649 mmHg 89%
    20:00 +23°C° 0.4 mm 1 mps 649 mmHg 88%
    21:00 +23°C° 0.4 mm 1 mps 649 mmHg 87%
    22:00 +21°C° 0.4 mm 0 mps 650 mmHg 86%
    23:00 +22°C° 0.3 mm 1 mps 649 mmHg 86%

    7 April, Tuesday

    Time Temperature Precipitation Wind Pressure Humidity
    00:00 +22°C° 0.3 mm 1 mps 649 mmHg 86%
    01:00 +22°C° 0.3 mm 1 mps 649 mmHg 86%
    02:00 +22°C° 0.1 mm 1 mps 649 mmHg 86%
    03:00 +21°C° 0.1 mm 1 mps 648 mmHg 86%
    04:00 +21°C° 0.1 mm 1 mps 648 mmHg 87%
    05:00 +22°C° 0 mm 1 mps 649 mmHg 85%
    06:00 +22°C° 0 mm 1 mps 649 mmHg 84%
    07:00 +23°C° 0 mm 1 mps 650 mmHg 83%
    08:00 +24°C° 0.1 mm 1 mps 650 mmHg 80%
    09:00 +25°C° 0.1 mm 1 mps 651 mmHg 77%
    10:00 +26°C° 0.1 mm 1 mps 651 mmHg 75%
    11:00 +26°C° 0.6 mm 2 mps 651 mmHg 75%
    12:00 +27°C° 0.6 mm 2 mps 650 mmHg 75%
    13:00 +27°C° 0.6 mm 2 mps 650 mmHg 75%
    14:00 +27°C° 1.2 mm 2 mps 649 mmHg 77%
    15:00 +26°C° 1.2 mm 2 mps 649 mmHg 78%
    16:00 +26°C° 1.2 mm 2 mps 648 mmHg 79%
    17:00 +25°C° 1.7 mm 1 mps 648 mmHg 82%
    18:00 +24°C° 1.7 mm 1 mps 649 mmHg 85%
    19:00 +23°C° 1.7 mm 1 mps 649 mmHg 88%
    20:00 +23°C° 0.5 mm 1 mps 649 mmHg 85%
    21:00 +23°C° 0.5 mm 1 mps 650 mmHg 82%
    22:00 +22°C° 0.5 mm 1 mps 650 mmHg 79%
    23:00 +22°C° 0.1 mm 1 mps 649 mmHg 79%

    8 April, Wednesday

    Time Temperature Precipitation Wind Pressure Humidity
    00:00 +21°C° 0.1 mm 1 mps 649 mmHg 78%
    01:00 +20°C° 0.1 mm 2 mps 649 mmHg 77%
    02:00 +19°C° 0 mm 2 mps 648 mmHg 77%
    03:00 +20°C° 0 mm 1 mps 648 mmHg 77%
    04:00 +20°C° 0 mm 1 mps 648 mmHg 78%
    05:00 +20°C° 0 mm 1 mps 648 mmHg 77%
    06:00 +21°C° 0 mm 1 mps 649 mmHg 77%
    07:00 +22°C° 0 mm 1 mps 650 mmHg 76%
    08:00 +23°C° 0 mm 1 mps 650 mmHg 72%
    09:00 +25°C° 0 mm 1 mps 651 mmHg 69%
    10:00 +26°C° 0 mm 1 mps 651 mmHg 65%
    11:00 +27°C° 0.2 mm 1 mps 651 mmHg 66%
    12:00 +27°C° 0.2 mm 2 mps 650 mmHg 67%
    13:00 +28°C° 0.2 mm 2 mps 649 mmHg 68%
    14:00 +27°C° 0.6 mm 2 mps 649 mmHg 72%
    15:00 +27°C° 0.6 mm 2 mps 648 mmHg 76%
    16:00 +26°C° 0.6 mm 2 mps 647 mmHg 80%
    17:00 +25°C° 1.8 mm 2 mps 648 mmHg 83%
    18:00 +24°C° 1.8 mm 1 mps 648 mmHg 86%
    19:00 +23°C° 1.8 mm 1 mps 648 mmHg 89%
    20:00 +23°C° 1.8 mm 1 mps 649 mmHg 89%
    21:00 +22°C° 1.8 mm 1 mps 649 mmHg 89%
    22:00 +22°C° 1.8 mm 1 mps 649 mmHg 89%
    23:00 +20°C° 0.9 mm 2 mps 649 mmHg 88%
    Show more